This is the latest recevied weather packets stored in our database for station/object KI6SYE. If no packets are shown the sender has not sent any weather packets the latest 10 day(s).
| Time | Temp. | Humidity | Pressure | Rain* | Wind** | Luminosity | Snow |
|---|---|---|---|---|---|---|---|
| 1788098223 | 21.11° C | 90% | 1011.6 hPa | 0 mm | - | 20 W/m² | - |
| 1788097918 | 20.56° C | 90% | 1011.6 hPa | 0 mm | - | 14 W/m² | - |
| 1788097614 | 20.56° C | 90% | 1011.7 hPa | 0 mm | - | 11 W/m² | - |
| 1788097309 | 20.56° C | 90% | 1011.5 hPa | 0 mm | - | 8 W/m² | - |
| 1788097005 | 20° C | 89% | 1011.1 hPa | 0 mm | - | 7 W/m² | - |
| 1788096700 | 20.56° C | 89% | 1011.2 hPa | 0 mm | - | 3 W/m² | - |
| 1788096397 | 20.56° C | 89% | 1011.4 hPa | 0 mm | - | 3 W/m² | - |
| 1788096092 | 20.56° C | 89% | 1011.4 hPa | 0 mm | - | 2 W/m² | - |
| 1788095791 | 20.56° C | 89% | 1011.1 hPa | 0 mm | - | 1 W/m² | - |
| 1788095491 | 20.56° C | 89% | 1011.1 hPa | 0 mm | - | 0 W/m² | - |
| 1788095186 | 20.56° C | 89% | 1011.1 hPa | 0 mm | - | 0 W/m² | - |
| 1788094881 | 20.56° C | 89% | 1010.9 hPa | 0 mm | - | 0 W/m² | - |
| 1788094580 | 20.56° C | 88% | 1011 hPa | 0 mm | - | 0 W/m² | - |
| 1788094280 | 20.56° C | 88% | 1010.8 hPa | 0 mm | - | 0 W/m² | - |
| 1788093978 | 21.11° C | 88% | 1011.1 hPa | 0 mm | - | 0 W/m² | - |
| 1788093674 | 21.11° C | 88% | 1011.1 hPa | 0 mm | - | 0 W/m² | - |
| 1788093371 | 21.11° C | 88% | 1010.9 hPa | 0 mm | - | 0 W/m² | - |
| 1788093066 | 21.11° C | 87% | 1011 hPa | 0 mm | - | 0 W/m² | - |
| 1788092763 | 21.11° C | 87% | 1011 hPa | 0 mm | - | 0 W/m² | - |
| 1788092459 | 21.11° C | 87% | 1011 hPa | 0 mm | - | 0 W/m² | - |
| 1788092154 | 21.11° C | 87% | 1010.9 hPa | 0 mm | - | 0 W/m² | - |
| 1788091853 | 21.67° C | 87% | 1010.8 hPa | 0 mm | - | 0 W/m² | - |
| 1788091549 | 21.67° C | 87% | 1010.7 hPa | 0 mm | - | 0 W/m² | - |
| 1788091245 | 21.11° C | 87% | 1010.7 hPa | 0 mm | - | 0 W/m² | - |
| 1788090941 | 21.67° C | 87% | 1010.8 hPa | 0 mm | - | 0 W/m² | - |
* Rain latest hour (hover to see other rain measurements)
** Current wind speed in m/s (hover to see current wind gust speed)